Weather in Malinovaya Varakka

Russia / Republic of Karelia     66°17′59″N   33°12′18″E
temp.,
°C
wind,
m/s
gust,
m/s
humid.,
%
clouds,
%
prec.,
mm/h
press.,
hPa
HPBL,
m
7 march, sun
sun700:00−8ese51293100 0.5 989683
03:00−9e61391100 0.8 990673
06:00−11e61492100 0.3 993582
09:00−11ene61491100 0.3 997688
12:00−10ene61190100 0.1 1001671
15:00−10ne5988100 0.1 1005618
18:00−14ne379160 0.0 1008191
21:00−18ne369740 0.0 1011127
8 march, mon
mon800:00−21nne249825 0.0 101383
03:00−23nne239919 0.0 101550
06:00−24nne2210071 0.0 101529
09:00−21nne249885 0.0 1017183
12:00−18ne249399 0.0 1018382
15:00−17nne239199 0.0 1018376
18:00−21nne1110094 0.0 101820
21:00−23sw119847 0.0 101920
9 march, tue
tue900:00−23sw239533 0.0 102021
03:00−22wsw239348 0.0 102037
06:00−22w23910 0.0 102037
09:00−20wnw22950 0.0 102065
12:00−15nw239022 0.0 1021230
15:00−13wnw238957 0.0 1022276
18:00−15w239440 0.0 102128
21:00−16w339520 0.0 102262
10 march, wed
wed1000:00−17wnw239413 0.0 102235
03:00−17wnw239346 0.0 102238
06:00−17w2392100 0.0 102257
09:00−16w3792100 0.0 1022143
12:00−11wnw368938 0.0 1021284
15:00−9w378719 0.0 1021407
18:00−11w35920 0.0 102094
21:00−14wsw36910 0.0 1020134
11 march, thu
thu1100:00−16wsw38910 0.0 1018147
03:00−16wsw410870 0.0 1018254
06:00−17sw410840 0.0 1016253
09:00−16sw512810 0.0 1014397
12:00−12sw511730 0.0 1012526
15:00−9sw613680 0.0 1009788
18:00−11ssw413770 0.0 1006591
21:00−12ssw514810 0.0 1003533